TimeCST,TemperatureF,Dew PointF,Humidity,Sea Level PressureIn,VisibilityMPH,Wind Direction,Wind SpeedMPH,Gust SpeedMPH,PrecipitationIn,Events,Conditions,WindDirDegrees,DateUTC
12:15 AM,35.6,33.8,93,30.00,10.0,SE,5.8,-,N/A,,Clear,140,2013-11-03 05:15:00
12:35 AM,35.6,33.8,93,29.99,10.0,SE,6.9,-,N/A,,Clear,140,2013-11-03 05:35:00
12:55 AM,35.6,33.8,93,29.99,10.0,SE,5.8,-,N/A,,Clear,140,2013-11-03 05:55:00
1:15 AM,35.6,33.8,93,29.99,10.0,SSE,6.9,-,N/A,,Clear,150,2013-11-03 06:15:00
1:35 AM,35.6,33.8,93,29.99,10.0,SSE,5.8,-,N/A,,Clear,150,2013-11-03 06:35:00
1:55 AM,35.6,33.8,93,29.99,10.0,SSE,6.9,-,N/A,,Clear,150,2013-11-03 06:55:00
1:15 AM,35.6,33.8,93,29.99,10.0,SSE,5.8,-,N/A,,Clear,150,2013-11-03 07:15:00
1:35 AM,37.4,33.8,87,29.98,10.0,SSE,8.1,-,N/A,,Clear,160,2013-11-03 07:35:00
1:55 AM,37.4,33.8,87,29.98,10.0,SE,8.1,-,N/A,,Clear,140,2013-11-03 07:55:00
2:15 AM,37.4,33.8,87,29.96,10.0,SE,10.4,-,N/A,,Clear,140,2013-11-03 08:15:00
2:35 AM,37.4,33.8,87,29.96,10.0,SE,10.4,-,N/A,,Clear,140,2013-11-03 08:35:00
2:55 AM,37.4,33.8,87,29.95,10.0,SE,10.4,-,N/A,,Clear,140,2013-11-03 08:55:00
3:15 AM,37.4,33.8,87,29.95,10.0,SE,11.5,-,N/A,,Clear,130,2013-11-03 09:15:00
3:35 AM,37.4,33.8,87,29.94,10.0,SE,10.4,-,N/A,,Clear,140,2013-11-03 09:35:00
3:55 AM,37.4,33.8,87,29.93,10.0,SE,10.4,-,N/A,,Clear,140,2013-11-03 09:55:00
4:15 AM,39.2,33.8,81,29.93,10.0,SE,13.8,-,N/A,,Clear,140,2013-11-03 10:15:00
4:35 AM,39.2,33.8,81,29.92,10.0,SE,13.8,-,N/A,,Clear,140,2013-11-03 10:35:00
4:55 AM,39.2,33.8,81,29.92,10.0,SE,12.7,19.6,N/A,,Clear,140,2013-11-03 10:55:00
5:15 AM,39.2,33.8,81,29.91,10.0,SE,12.7,-,N/A,,Clear,140,2013-11-03 11:15:00
5:35 AM,39.2,33.8,81,29.90,10.0,SE,15.0,-,N/A,,Clear,140,2013-11-03 11:35:00
5:55 AM,37.4,33.8,87,29.90,10.0,SE,15.0,24.2,N/A,,Clear,140,2013-11-03 11:55:00
6:15 AM,39.2,33.8,81,29.90,10.0,SE,12.7,18.4,N/A,,Clear,140,2013-11-03 12:15:00
6:35 AM,37.4,33.8,87,29.89,10.0,SE,16.1,-,N/A,,Clear,140,2013-11-03 12:35:00
6:55 AM,37.4,33.8,87,29.88,10.0,SE,17.3,21.9,N/A,,Clear,140,2013-11-03 12:55:00
7:15 AM,39.2,33.8,81,29.87,10.0,SE,16.1,24.2,N/A,,Clear,140,2013-11-03 13:15:00
7:35 AM,37.4,33.8,87,29.87,10.0,SE,16.1,25.3,N/A,,Clear,140,2013-11-03 13:35:00
7:55 AM,37.4,33.8,87,29.86,10.0,SE,18.4,24.2,N/A,,Clear,140,2013-11-03 13:55:00
8:15 AM,37.4,33.8,87,29.86,10.0,SE,19.6,-,N/A,,Clear,140,2013-11-03 14:15:00
8:35 AM,39.2,33.8,81,29.86,10.0,SE,19.6,27.6,N/A,,Clear,140,2013-11-03 14:35:00
8:55 AM,39.2,33.8,81,29.86,10.0,SE,19.6,25.3,N/A,,Clear,140,2013-11-03 14:55:00
9:15 AM,41.0,33.8,76,29.85,10.0,SE,18.4,24.2,N/A,,Clear,140,2013-11-03 15:15:00
9:35 AM,41.0,33.8,76,29.84,10.0,SE,18.4,25.3,N/A,,Clear,140,2013-11-03 15:35:00
9:55 AM,41.0,33.8,76,29.83,10.0,SE,20.7,26.5,N/A,,Clear,140,2013-11-03 15:55:00
10:15 AM,42.8,33.8,70,29.82,10.0,SE,20.7,26.5,N/A,,Clear,140,2013-11-03 16:15:00
10:35 AM,42.8,33.8,70,29.80,10.0,SSE,20.7,31.1,N/A,,Clear,150,2013-11-03 16:35:00
10:55 AM,44.6,32.0,61,29.79,10.0,SSE,23.0,33.4,N/A,,Clear,150,2013-11-03 16:55:00
11:15 AM,46.4,33.8,62,29.76,10.0,SSE,26.5,36.8,N/A,,Clear,150,2013-11-03 17:15:00
11:35 AM,46.4,32.0,57,29.74,10.0,SE,27.6,33.4,N/A,,Clear,140,2013-11-03 17:35:00
11:55 AM,48.2,33.8,58,29.73,10.0,SSE,29.9,39.1,N/A,,Clear,150,2013-11-03 17:55:00
12:15 PM,48.2,32.0,54,29.72,10.0,SSE,28.8,33.4,N/A,,Clear,150,2013-11-03 18:15:00
12:35 PM,50.0,32.0,50,29.71,10.0,SSE,28.8,41.4,N/A,,Clear,160,2013-11-03 18:35:00
12:55 PM,50.0,32.0,50,29.71,10.0,SSE,32.2,41.4,N/A,,Clear,160,2013-11-03 18:55:00
1:15 PM,50.0,32.0,50,29.71,10.0,SSE,29.9,38.0,N/A,,Clear,160,2013-11-03 19:15:00
1:35 PM,51.8,32.0,47,29.71,10.0,SSE,26.5,41.4,N/A,,Clear,160,2013-11-03 19:35:00
1:55 PM,50.0,32.0,50,29.70,10.0,South,27.6,38.0,N/A,,Clear,170,2013-11-03 19:55:00
2:15 PM,51.8,32.0,47,29.69,10.0,SSE,27.6,43.7,N/A,,Clear,160,2013-11-03 20:15:00
2:35 PM,51.8,32.0,47,29.69,10.0,SSE,31.1,39.1,N/A,,Clear,160,2013-11-03 20:35:00
2:55 PM,50.0,32.0,50,29.69,10.0,SSE,27.6,40.3,N/A,,Clear,160,2013-11-03 20:55:00
3:15 PM,50.0,32.0,50,29.69,10.0,SSE,28.8,38.0,N/A,,Clear,160,2013-11-03 21:15:00
3:35 PM,50.0,32.0,50,29.70,10.0,SSE,24.2,33.4,N/A,,Clear,150,2013-11-03 21:35:00
3:55 PM,50.0,32.0,50,29.70,10.0,SSE,21.9,28.8,N/A,,Clear,160,2013-11-03 21:55:00
4:15 PM,50.0,32.0,50,29.69,10.0,SSE,26.5,36.8,N/A,,Clear,160,2013-11-03 22:15:00
4:35 PM,50.0,32.0,50,29.70,10.0,SSE,21.9,31.1,N/A,,Clear,160,2013-11-03 22:35:00
4:55 PM,50.0,32.0,50,29.70,10.0,SSE,23.0,32.2,N/A,,Clear,160,2013-11-03 22:55:00
5:15 PM,50.0,32.0,50,29.70,10.0,SSE,20.7,28.8,N/A,,Clear,160,2013-11-03 23:15:00
5:35 PM,50.0,32.0,50,29.70,10.0,SSE,18.4,33.4,N/A,,Clear,150,2013-11-03 23:35:00
5:55 PM,50.0,32.0,50,29.71,10.0,SSE,20.7,29.9,N/A,,Clear,150,2013-11-03 23:55:00
6:15 PM,50.0,32.0,50,29.71,10.0,SSE,21.9,28.8,N/A,,Clear,150,2013-11-04 00:15:00
6:35 PM,48.2,32.0,54,29.71,10.0,SSE,17.3,27.6,N/A,,Clear,150,2013-11-04 00:35:00
6:55 PM,48.2,32.0,54,29.71,10.0,SSE,20.7,29.9,N/A,,Clear,150,2013-11-04 00:55:00
7:15 PM,46.4,32.0,57,29.71,10.0,SSE,20.7,27.6,N/A,,Clear,150,2013-11-04 01:15:00
7:35 PM,48.2,32.0,54,29.72,10.0,SSE,24.2,31.1,N/A,,Scattered Clouds,160,2013-11-04 01:35:00
7:55 PM,48.2,32.0,54,29.71,10.0,SSE,20.7,27.6,N/A,,Mostly Cloudy,160,2013-11-04 01:55:00
8:15 PM,48.2,32.0,54,29.71,10.0,SSE,20.7,31.1,N/A,,Overcast,160,2013-11-04 02:15:00
8:35 PM,48.2,32.0,54,29.70,10.0,SSE,20.7,31.1,N/A,,Mostly Cloudy,150,2013-11-04 02:35:00
8:55 PM,46.4,32.0,57,29.71,10.0,SSE,18.4,26.5,N/A,,Mostly Cloudy,150,2013-11-04 02:55:00
9:15 PM,46.4,32.0,57,29.71,10.0,SSE,18.4,26.5,N/A,,Overcast,160,2013-11-04 03:15:00
9:35 PM,46.4,32.0,57,29.71,10.0,SSE,20.7,24.2,N/A,,Overcast,160,2013-11-04 03:35:00
9:55 PM,46.4,32.0,57,29.71,10.0,SSE,20.7,25.3,N/A,,Overcast,160,2013-11-04 03:55:00
10:15 PM,46.4,32.0,57,29.71,10.0,SSE,17.3,26.5,N/A,,Overcast,160,2013-11-04 04:15:00
10:35 PM,46.4,33.8,62,29.71,10.0,SSE,16.1,23.0,N/A,,Mostly Cloudy,160,2013-11-04 04:35:00
10:55 PM,46.4,33.8,62,29.70,10.0,South,18.4,27.6,N/A,,Mostly Cloudy,170,2013-11-04 04:55:00